SL-16 DEB, 28436

Orbit data source: Space-Track

SL-16 DEB, 28436 is space debris in SSO originally from a launch on Mon, 10 Dec 2001 UTC launched from the Tyuratam Missile And Space Complex (TTMTR). Debris objects in space refer to the collection of defunct objects orbiting the Earth. Examples of debris include non-operational satellites, rocket bodies, and fragments generated from explosions, collisions, or faulty payload assembly.

Loading next visibility...
Identifier
28436, 2001-056K
Orbit
SSO
Country
Flag of CISCIS
Related business
Manufacturer
Yuzhnoe
Mission
Spacecraft
Bus & Motor
SEP MOTOR COVER, Unknown motor
Mass
~1 kg wet, ~1 kg dry
Launch date (UTC)
2001-12-10 (24 years ago)
Launch vehicle
Unknown
Launch site
Tyuratam Missile And Space Complex (TTMTR)
Object type
Payload
Rocket body
Debris
Shape & HBR
Cone, 0.5 m
Radar Cross Section
0.635 m², Medium (>0.1 m² and < 1m²)

Expand to show TLE details & history
Last TLE update: 9 hours ago

TLE from 9 hours ago
0 SL-16 DEB
1 28436U 01056K   26150.44619420  .00000023  00000-0  12294-3 0  9995
2 28436  99.4747  92.0914 0192150 188.1590 293.1408 13.29056305186310
Epoch: 2026-05-30T10:42Z
TLE epoch observation values (Epoch: 2026-05-30T10:42:31.178Z)
Latitude
59.4716°
Longitude
-120.14794°
Altitude
1,105.848 km
Speed
7.331 km/s
True Right ascension
19h 13m 46s
True Declination
59° 19' 40"
Sunlit
Object was in daylight at epoch
Visualization orbit readout
Latitude
Unknown
Longitude
Unknown
Altitude
Unknown
Speed
Unknown
Apparent Right ascension
Unknown
Apparent Declination
Unknown
Sunlit
N/A
Visualization observer readout
Local Sidereal Time
05:28:23
Azimuth
Unknown
Elevation
Unknown
Doppler factor
Unknown
Orbital elements
Apogee altitude
1,292.249 km
Perigee altitude
1,003.034 km
Semi-major axis
7,525.778 km
Eccentricity
0.01922
Inclination
99.4747°
RAAN
92.0914°
Arg. of periapsis
188.159°
True anomaly
291.09723°
Mean anomaly
293.1408°
Eccentric anomaly
292.1209°
Mean motion
3.32442 °/min
Orbital period
108.29 mins
BSTAR
0.00012294
Loading maneuver chart data...
Computing Atmospheric mass density...
Loading historical data...
Loading historical data...
Loading historical data...
Loading historical data...
Loading historical data...
Loading historical data...
Loading historical data...

Documentation

Showing up to 5 results
|